Location: Mexico
(19.4000°N, 99.1500°W)
Time: 12:11:47
(UTC-06:00)

ISS - Pass Details

Date: 16 September 2020
Orbit: 419 x 421 km, 51.6° (Epoch: 30 September)

Event Time Altitude Azimuth Distance (km) Brightness Sun altitude
Exits shadow 04:45:52 37° 114° (ESE) 665 -2.4 -23.9°
Drops below altitude 10° 04:48:06 10° 132° (SE) 1,491 -0.5 -23.4°
Sets 04:50:12 0° 135° (SE) 2,353 0.5 -22.9°
